Flag for France Weather past 2 weeks in Bourges, France

Now
30 °F

Chilly.


Feels Like: 30 °F
Forecast: 44 / 55 °F
Wind: 2 mph from Southwest

Location: Bourges

Current Time: Feb 28, 2015 at 2:36:50 AM

Latest Report: Feb 28, 2015 at 2:00 AM


Visibility: 10 mi

Pressure: 30.27 "Hg

Humidity: 92%

Dew point: 28 °F

Location of BourgesLocation

Historic Weather in Bourges — Graph

°F

Bourges temperature yesterday

Maximum temperature yesterday: 49 °F (at 12:00 AM)
Minimum temperature yesterday: 38 °F (at 11:00 PM)
Average temperature yesterday: 43 °F

Past Weeks' High & Low Weather Summary

 TemperatureHumidityPressure
High56 °F (Feb 13, 2:00 PM)100% (Feb 15, 11:00 PM)30.70 "Hg (Feb 15, 11:00 PM)
Low26 °F (Feb 19, 6:00 AM)45% (Feb 27, 3:00 PM)29.58 "Hg (Feb 23, 7:00 AM)
Average41 °F86%30.05 "Hg
* Reported Feb 13 1:00 AM — Feb 28 1:00 AM, Bourges, Weather by CustomWeather, © 2015

Note: Actual official high and low records may vary slightly from our data, if they occured in-between our weather recording intervals... More about our weather records

Advertising

Bourges weather history for previous 24 hours

 ConditionsComfort  
Time TempWeatherWind HumidityBarometerVisibility
1:00 AM
Sat, Feb 28
32 °FChilly.2 mph89%30.27 "Hg12 mi
12:00 AM35 °FChilly.3 mph79%30.27 "Hg12 mi
11:00 PM
Fri, Feb 27
38 °FChilly.3 mph72%30.28 "Hg12 mi
10:00 PM39 °FChilly.3 mph67%30.28 "Hg12 mi
9:00 PM38 °FChilly.3 mph67%30.27 "Hg12 mi
8:00 PM40 °FChilly.2 mph66%30.26 "Hg12 mi
7:00 PM42 °FQuite cool.2 mph62%30.26 "Hg12 mi
6:00 PM44 °FOvercast.5 mph55%30.23 "Hg12 mi
5:00 PM45 °FPartly sunny.7 mph56%30.22 "Hg19 mi
4:00 PM46 °FPartly sunny.9 mph52%30.20 "Hg19 mi
3:00 PM47 °FPartly sunny.9 mph45%30.19 "Hg19 mi
2:00 PM46 °FPartly sunny.10 mph49%30.19 "Hg19 mi
1:00 PM46 °FScattered clouds.10 mph50%30.19 "Hg16 mi
12:00 PM45 °FScattered clouds.10 mph59%30.18 "Hg16 mi
11:00 AM43 °FScattered clouds.12 mph66%30.17 "Hg16 mi
10:00 AM42 °FPassing clouds.12 mph74%30.15 "Hg16 mi
9:00 AM40 °FOvercast.9 mph77%30.12 "Hg12 mi
8:00 AM40 °FOvercast.9 mph82%30.09 "Hg9 mi
7:00 AM40 °FLight rain. Overcast.9 mph88%30.05 "Hg6 mi
6:00 AM40 °FRain. Overcast.12 mph91%30.01 "Hg6 mi
5:00 AM42 °FOvercast.10 mph87%29.97 "Hg12 mi
2:00 AM45 °FOvercast.12 mph91%29.93 "Hg12 mi
Weather by CustomWeather, © 2015

See weather overviewHow to use our weather pages